Hourly Data Report for January 04, 2018

All times are specified in Local Standard Time (LST). Add 1 hour to adjust for Daylight Saving Time where and when it is observed.

VANCOUVER INTL A
BRITISH COLUMBIA

49°11'41.000" N
123°11'02.000" W
4.30 m
1108395
71892
YVR

Download Data

Hourly Data (January 2018)
Hourly Data Report for January 4, 2018
Temp Definition
°C
Dew Point Temp Definition
°C
Rel Hum Definition
%
Wind Dir Definition
10's deg

Wind Spd Definition
km/h
Visibility Definition
km
Stn Press Definition
kPa
Hmdx Definition


Wind Chill Definition


Weather Definition


TIME
00:00 Legend Double Dagger 1.5 1.5 100 31 3 0.4 101.76     Fog
01:00 Legend Double Dagger 1.9 1.9 100 3 5 0.4 101.73     Fog
02:00 Legend Double Dagger 2.0 2.0 100 11 3 0.4 101.75     Fog
03:00 Legend Double Dagger 1.9 1.9 100 15 5 0.6 101.76     Fog
04:00 Legend Double Dagger 2.2 2.2 100 10 5 1.2 101.72     Fog
05:00 Legend Double Dagger 2.6 2.6 100 35 3 1.2 101.69     Fog
06:00 Legend Double Dagger 1.7 1.7 100 12 7 0.4 101.66     Fog
07:00 Legend Double Dagger 1.9 1.9 100 7 5 0.6 101.63     Fog
08:00 Legend Double Dagger 1.8 1.8 100 13 6 0.8 101.65     Fog
09:00 Legend Double Dagger 1.7 1.7 100 10 9 2.8 101.67     Fog
10:00 Legend Double Dagger 2.3 2.3 100 12 7 48.3 101.70     Cloudy
11:00 Legend Double Dagger 3.2 3.2 100 1 4 48.3 101.68     LegendNANA
12:00 Legend Double Dagger 4.1 3.4 96 10 9 48.3 101.64     LegendNANA
13:00 Legend Double Dagger 4.6 3.4 92 9 11 48.3 101.56     Cloudy
14:00 Legend Double Dagger 4.9 2.6 85 17 5 48.3 101.58     Rain
15:00 Legend Double Dagger 5.2 3.5 89 8 8 48.3 101.56     Rain
16:00 Legend Double Dagger 5.6 4.0 89 13 7 48.3 101.54     Cloudy
17:00 Legend Double Dagger 4.8 3.4 90 14 7 48.3 101.55     Rain
18:00 Legend Double Dagger 4.7 3.4 91 8 4 32.2 101.53     LegendNANA
19:00 Legend Double Dagger 4.8 3.7 93 36 2 32.2 101.53     Cloudy
20:00 Legend Double Dagger 5.1 3.6 90 9 5 32.2 101.51     LegendNANA
21:00 Legend Double Dagger 4.9 3.7 92 17 10 32.2 101.53     LegendNANA
22:00 Legend Double Dagger 5.4 3.4 87 1 11 32.2 101.52     Cloudy
23:00 Legend Double Dagger 5.8 3.7 86 5 9 32.2 101.51     LegendNANA

Notes on Data Quality.

Legend

  • E = Estimated
  • M = Missing
  • NA = Not Available
  • ‡ = Partner data that is not subject to review by the National Climate Archives
Date modified: